Time,TemperatureF,DewpointF,PressureIn,WindDirection,WindDirectionDegrees,WindSpeedMPH,WindSpeedGustMPH,Humidity,HourlyPrecipIn,Conditions,Clouds,dailyrainin,SoftwareType,DateUTC
2014-01-12 00:03:00,33.0,32.0,26.71,NNE,22,2.0,7.0,97,0.00,,,0.00,Rainwise IP-100,2014-01-12 07:03:00,
2014-01-12 00:08:00,32.0,32.0,26.71,ENE,67,4.0,8.0,99,0.00,,,0.00,Rainwise IP-100,2014-01-12 07:08:00,
2014-01-12 00:13:00,32.0,32.0,26.71,ESE,112,3.0,6.0,100,0.00,,,0.00,Rainwise IP-100,2014-01-12 07:13:00,
2014-01-12 00:18:00,33.0,33.0,26.71,ESE,112,2.0,5.0,100,0.00,,,0.00,Rainwise IP-100,2014-01-12 07:18:00,
2014-01-12 00:23:00,33.0,33.0,26.70,ENE,67,2.0,4.0,100,0.00,,,0.00,Rainwise IP-100,2014-01-12 07:23:00,
2014-01-12 00:28:00,32.0,32.0,26.70,NNE,22,5.0,5.0,99,0.00,,,0.00,Rainwise IP-100,2014-01-12 07:28:00,
2014-01-12 00:33:00,32.0,32.0,26.71,NNE,22,0.0,6.0,100,0.00,,,0.00,Rainwise IP-100,2014-01-12 07:33:00,
2014-01-12 00:38:00,32.0,32.0,26.71,East,90,3.0,4.0,100,0.00,,,0.00,Rainwise IP-100,2014-01-12 07:38:00,
2014-01-12 00:43:00,32.0,32.0,26.71,ENE,67,0.0,5.0,100,0.00,,,0.00,Rainwise IP-100,2014-01-12 07:43:00,
2014-01-12 00:48:00,32.0,32.0,26.71,ESE,112,2.0,4.0,100,0.00,,,0.00,Rainwise IP-100,2014-01-12 07:48:00,
2014-01-12 00:53:00,33.0,33.0,26.70,ENE,67,3.0,4.0,100,0.00,,,0.00,Rainwise IP-100,2014-01-12 07:53:00,
2014-01-12 00:58:00,33.0,33.0,26.70,SSE,157,4.0,5.0,100,0.00,,,0.00,Rainwise IP-100,2014-01-12 07:58:00,
2014-01-12 01:03:00,33.0,33.0,26.71,SE,135,6.0,6.0,100,0.00,,,0.00,Rainwise IP-100,2014-01-12 08:03:00,
2014-01-12 01:08:00,33.0,33.0,26.71,SSW,202,1.0,7.0,99,0.00,,,0.00,Rainwise IP-100,2014-01-12 08:08:00,
2014-01-12 01:13:00,33.0,32.0,26.71,ESE,112,6.0,6.0,97,0.00,,,0.00,Rainwise IP-100,2014-01-12 08:13:00,
2014-01-12 01:18:00,34.0,33.0,26.71,South,180,6.0,9.0,95,0.00,,,0.00,Rainwise IP-100,2014-01-12 08:18:00,
2014-01-12 01:23:00,34.0,33.0,26.71,South,180,7.0,12.0,94,0.00,,,0.00,Rainwise IP-100,2014-01-12 08:23:00,
2014-01-12 01:28:00,34.0,33.0,26.71,SSE,157,7.0,9.0,96,0.00,,,0.00,Rainwise IP-100,2014-01-12 08:28:00,
2014-01-12 01:33:00,33.0,32.0,26.72,SSE,157,4.0,10.0,96,0.00,,,0.00,Rainwise IP-100,2014-01-12 08:33:00,
2014-01-12 01:38:00,33.0,32.0,26.72,South,180,6.0,10.0,97,0.00,,,0.00,Rainwise IP-100,2014-01-12 08:38:00,
2014-01-12 01:43:00,33.0,32.0,26.72,SW,225,2.0,9.0,97,0.06,,,0.01,Rainwise IP-100,2014-01-12 08:43:00,
2014-01-12 01:48:00,33.0,33.0,26.72,SSW,202,0.0,5.0,98,0.06,,,0.01,Rainwise IP-100,2014-01-12 08:48:00,
2014-01-12 01:53:00,33.0,33.0,26.72,ESE,112,2.0,6.0,98,0.00,,,0.01,Rainwise IP-100,2014-01-12 08:53:00,
2014-01-12 01:58:00,33.0,33.0,26.72,SSE,157,8.0,12.0,98,0.00,,,0.01,Rainwise IP-100,2014-01-12 08:58:00,
2014-01-12 02:03:00,34.0,33.0,26.72,South,180,7.0,13.0,97,0.00,,,0.01,Rainwise IP-100,2014-01-12 09:03:00,
2014-01-12 02:08:00,33.0,32.0,26.72,SSW,202,4.0,10.0,97,0.00,,,0.01,Rainwise IP-100,2014-01-12 09:08:00,
2014-01-12 02:13:00,33.0,33.0,26.73,WSW,247,1.0,8.0,98,0.00,,,0.01,Rainwise IP-100,2014-01-12 09:13:00,
2014-01-12 02:18:00,33.0,32.0,26.73,WSW,247,1.0,4.0,97,0.00,,,0.01,Rainwise IP-100,2014-01-12 09:18:00,
2014-01-12 02:23:00,33.0,32.0,26.73,SW,225,1.0,4.0,97,0.00,,,0.01,Rainwise IP-100,2014-01-12 09:23:00,
2014-01-12 02:28:00,33.0,33.0,26.73,South,180,4.0,4.0,99,0.00,,,0.01,Rainwise IP-100,2014-01-12 09:28:00,
2014-01-12 02:33:00,33.0,33.0,26.74,WSW,247,0.0,4.0,99,0.00,,,0.01,Rainwise IP-100,2014-01-12 09:33:00,
2014-01-12 02:38:00,33.0,33.0,26.74,SSE,157,2.0,0.0,99,0.00,,,0.01,Rainwise IP-100,2014-01-12 09:38:00,
2014-01-12 02:43:00,33.0,33.0,26.73,SSW,202,4.0,6.0,99,0.00,,,0.01,Rainwise IP-100,2014-01-12 09:43:00,
2014-01-12 02:48:00,33.0,33.0,26.73,SSW,202,5.0,6.0,99,0.00,,,0.01,Rainwise IP-100,2014-01-12 09:48:00,
2014-01-12 02:53:00,33.0,33.0,26.74,South,180,2.0,7.0,98,0.00,,,0.01,Rainwise IP-100,2014-01-12 09:53:00,
2014-01-12 02:58:00,33.0,33.0,26.74,SSE,157,3.0,8.0,98,0.00,,,0.01,Rainwise IP-100,2014-01-12 09:58:00,
2014-01-12 03:03:00,33.0,32.0,26.75,SSE,157,6.0,7.0,97,0.00,,,0.01,Rainwise IP-100,2014-01-12 10:03:00,
2014-01-12 03:08:00,33.0,32.0,26.75,SSE,157,3.0,7.0,97,0.00,,,0.01,Rainwise IP-100,2014-01-12 10:08:00,
2014-01-12 03:13:00,33.0,32.0,26.75,SSW,202,1.0,7.0,96,0.00,,,0.01,Rainwise IP-100,2014-01-12 10:13:00,
2014-01-12 03:18:00,33.0,32.0,26.75,SSE,157,6.0,7.0,95,0.00,,,0.01,Rainwise IP-100,2014-01-12 10:18:00,
2014-01-12 03:23:00,34.0,33.0,26.75,SSE,157,5.0,10.0,93,0.00,,,0.01,Rainwise IP-100,2014-01-12 10:23:00,
2014-01-12 03:28:00,34.0,33.0,26.75,SSE,157,7.0,10.0,94,0.00,,,0.01,Rainwise IP-100,2014-01-12 10:28:00,
2014-01-12 03:33:00,34.0,33.0,26.75,South,180,7.0,12.0,94,0.00,,,0.01,Rainwise IP-100,2014-01-12 10:33:00,
2014-01-12 03:38:00,34.0,33.0,26.75,SSE,157,7.0,11.0,95,0.00,,,0.01,Rainwise IP-100,2014-01-12 10:38:00,
2014-01-12 03:43:00,34.0,33.0,26.76,ESE,112,4.0,11.0,94,0.00,,,0.01,Rainwise IP-100,2014-01-12 10:43:00,
2014-01-12 03:48:00,34.0,33.0,26.76,SE,135,6.0,10.0,93,0.00,,,0.01,Rainwise IP-100,2014-01-12 10:48:00,
2014-01-12 03:53:00,34.0,33.0,26.76,ESE,112,8.0,8.0,93,0.00,,,0.01,Rainwise IP-100,2014-01-12 10:53:00,
2014-01-12 03:58:00,34.0,33.0,26.76,SSE,157,7.0,8.0,94,0.00,,,0.01,Rainwise IP-100,2014-01-12 10:58:00,
2014-01-12 04:03:00,34.0,33.0,26.77,SSE,157,0.0,7.0,93,0.00,,,0.01,Rainwise IP-100,2014-01-12 11:03:00,
2014-01-12 04:08:00,34.0,32.0,26.77,SE,135,6.0,7.0,92,0.00,,,0.01,Rainwise IP-100,2014-01-12 11:08:00,
2014-01-12 04:13:00,34.0,32.0,26.76,SSE,157,5.0,7.0,92,0.00,,,0.01,Rainwise IP-100,2014-01-12 11:13:00,
2014-01-12 04:18:00,34.0,32.0,26.76,South,180,2.0,7.0,91,0.00,,,0.01,Rainwise IP-100,2014-01-12 11:18:00,
2014-01-12 04:23:00,34.0,32.0,26.77,South,180,0.0,4.0,91,0.00,,,0.01,Rainwise IP-100,2014-01-12 11:23:00,
2014-01-12 04:28:00,33.0,31.0,26.77,SE,135,0.0,3.0,91,0.00,,,0.01,Rainwise IP-100,2014-01-12 11:28:00,
2014-01-12 04:33:00,33.0,31.0,26.77,NE,45,0.0,4.0,92,0.00,,,0.01,Rainwise IP-100,2014-01-12 11:33:00,
2014-01-12 04:38:00,33.0,31.0,26.77,NE,45,0.0,0.0,92,0.00,,,0.01,Rainwise IP-100,2014-01-12 11:38:00,
2014-01-12 04:43:00,34.0,32.0,26.77,NW,315,1.0,9.0,89,0.00,,,0.01,Rainwise IP-100,2014-01-12 11:43:00,
2014-01-12 04:48:00,34.0,32.0,26.77,SSE,157,3.0,6.0,88,0.00,,,0.01,Rainwise IP-100,2014-01-12 11:48:00,
2014-01-12 04:53:00,34.0,31.0,26.77,NW,315,5.0,6.0,87,0.00,,,0.01,Rainwise IP-100,2014-01-12 11:53:00,
2014-01-12 04:58:00,34.0,31.0,26.77,WSW,247,2.0,7.0,86,0.00,,,0.01,Rainwise IP-100,2014-01-12 11:58:00,
2014-01-12 05:03:00,34.0,31.0,26.77,WSW,247,2.0,9.0,84,0.00,,,0.01,Rainwise IP-100,2014-01-12 12:03:00,
2014-01-12 05:08:00,35.0,31.0,26.77,SSW,202,3.0,4.0,84,0.00,,,0.01,Rainwise IP-100,2014-01-12 12:08:00,
2014-01-12 05:13:00,35.0,31.0,26.78,WSW,247,1.0,3.0,84,0.00,,,0.01,Rainwise IP-100,2014-01-12 12:13:00,
2014-01-12 05:18:00,34.0,31.0,26.78,South,180,2.0,6.0,84,0.00,,,0.01,Rainwise IP-100,2014-01-12 12:18:00,
2014-01-12 05:23:00,35.0,31.0,26.78,SE,135,3.0,4.0,84,0.00,,,0.01,Rainwise IP-100,2014-01-12 12:23:00,
2014-01-12 05:28:00,34.0,31.0,26.78,SW,225,1.0,5.0,85,0.00,,,0.01,Rainwise IP-100,2014-01-12 12:28:00,
2014-01-12 05:33:00,34.0,31.0,26.80,West,270,1.0,3.0,86,0.00,,,0.01,Rainwise IP-100,2014-01-12 12:33:00,
2014-01-12 05:38:00,34.0,31.0,26.80,WNW,292,1.0,4.0,87,0.00,,,0.01,Rainwise IP-100,2014-01-12 12:38:00,
2014-01-12 05:43:00,34.0,31.0,26.81,WNW,292,3.0,4.0,87,0.00,,,0.01,Rainwise IP-100,2014-01-12 12:43:00,
2014-01-12 05:48:00,34.0,31.0,26.81,WSW,247,1.0,6.0,86,0.00,,,0.01,Rainwise IP-100,2014-01-12 12:48:00,
2014-01-12 05:53:00,34.0,31.0,26.81,West,270,3.0,7.0,86,0.00,,,0.01,Rainwise IP-100,2014-01-12 12:53:00,
2014-01-12 05:58:00,34.0,31.0,26.81,WNW,292,1.0,7.0,86,0.00,,,0.01,Rainwise IP-100,2014-01-12 12:58:00,
2014-01-12 06:03:00,34.0,31.0,26.82,West,270,4.0,6.0,85,0.00,,,0.01,Rainwise IP-100,2014-01-12 13:03:00,
2014-01-12 06:08:00,34.0,31.0,26.82,WNW,292,0.0,6.0,86,0.00,,,0.01,Rainwise IP-100,2014-01-12 13:08:00,
2014-01-12 06:13:00,34.0,31.0,26.83,WNW,292,0.0,4.0,86,0.00,,,0.01,Rainwise IP-100,2014-01-12 13:13:00,
2014-01-12 06:18:00,34.0,31.0,26.83,West,270,3.0,4.0,86,0.00,,,0.01,Rainwise IP-100,2014-01-12 13:18:00,
2014-01-12 06:23:00,34.0,31.0,26.85,NW,315,3.0,4.0,87,0.00,,,0.01,Rainwise IP-100,2014-01-12 13:23:00,
2014-01-12 06:28:00,34.0,31.0,26.85,NW,315,1.0,7.0,87,0.00,,,0.01,Rainwise IP-100,2014-01-12 13:28:00,
2014-01-12 06:33:00,34.0,31.0,26.85,North,360,3.0,7.0,86,0.00,,,0.01,Rainwise IP-100,2014-01-12 13:33:00,
2014-01-12 06:38:00,34.0,31.0,26.85,SSW,202,4.0,6.0,86,0.00,,,0.01,Rainwise IP-100,2014-01-12 13:38:00,
2014-01-12 06:43:00,34.0,31.0,26.86,SSW,202,1.0,4.0,87,0.00,,,0.01,Rainwise IP-100,2014-01-12 13:43:00,
2014-01-12 06:48:00,34.0,31.0,26.86,WSW,247,2.0,6.0,87,0.00,,,0.01,Rainwise IP-100,2014-01-12 13:48:00,
2014-01-12 06:53:00,34.0,31.0,26.87,WNW,292,0.0,6.0,87,0.00,,,0.01,Rainwise IP-100,2014-01-12 13:53:00,
2014-01-12 06:58:00,34.0,31.0,26.87,WNW,292,0.0,7.0,86,0.00,,,0.01,Rainwise IP-100,2014-01-12 13:58:00,
2014-01-12 07:03:00,34.0,31.0,26.87,WSW,247,3.0,5.0,86,0.00,,,0.01,Rainwise IP-100,2014-01-12 14:03:00,
2014-01-12 07:08:00,34.0,31.0,26.87,West,270,0.0,6.0,86,0.00,,,0.01,Rainwise IP-100,2014-01-12 14:08:00,
2014-01-12 07:13:00,34.0,31.0,26.88,West,270,0.0,2.0,86,0.00,,,0.01,Rainwise IP-100,2014-01-12 14:13:00,
2014-01-12 07:18:00,33.0,31.0,26.88,West,270,0.0,1.0,87,0.00,,,0.01,Rainwise IP-100,2014-01-12 14:18:00,
2014-01-12 07:23:00,33.0,31.0,26.88,West,270,0.0,0.0,88,0.00,,,0.01,Rainwise IP-100,2014-01-12 14:23:00,
2014-01-12 07:28:00,33.0,31.0,26.88,West,270,0.0,0.0,91,0.00,,,0.01,Rainwise IP-100,2014-01-12 14:28:00,
2014-01-12 07:33:00,33.0,31.0,26.89,ESE,112,2.0,3.0,90,0.00,,,0.01,Rainwise IP-100,2014-01-12 14:33:00,
2014-01-12 07:38:00,33.0,31.0,26.89,South,180,2.0,3.0,91,0.00,,,0.01,Rainwise IP-100,2014-01-12 14:38:00,
2014-01-12 07:43:00,33.0,31.0,26.90,South,180,0.0,3.0,91,0.00,,,0.01,Rainwise IP-100,2014-01-12 14:43:00,
2014-01-12 07:48:00,33.0,31.0,26.90,WSW,247,0.0,1.0,90,0.00,,,0.01,Rainwise IP-100,2014-01-12 14:48:00,
2014-01-12 07:53:00,33.0,31.0,26.91,NNW,337,0.0,4.0,91,0.00,,,0.01,Rainwise IP-100,2014-01-12 14:53:00,
2014-01-12 07:58:00,33.0,31.0,26.91,NNW,337,0.0,2.0,91,0.00,,,0.01,Rainwise IP-100,2014-01-12 14:58:00,
2014-01-12 08:03:00,33.0,31.0,26.92,West,270,3.0,3.0,91,0.00,,,0.01,Rainwise IP-100,2014-01-12 15:03:00,
2014-01-12 08:08:00,34.0,31.0,26.92,NW,315,1.0,7.0,84,0.00,,,0.01,Rainwise IP-100,2014-01-12 15:08:00,
2014-01-12 08:13:00,34.0,31.0,26.93,North,360,4.0,7.0,86,0.00,,,0.01,Rainwise IP-100,2014-01-12 15:13:00,
2014-01-12 08:18:00,34.0,31.0,26.93,NNW,337,3.0,7.0,86,0.00,,,0.01,Rainwise IP-100,2014-01-12 15:18:00,
2014-01-12 08:23:00,34.0,31.0,26.93,NNE,22,1.0,6.0,86,0.00,,,0.01,Rainwise IP-100,2014-01-12 15:23:00,
2014-01-12 08:28:00,34.0,31.0,26.93,WNW,292,3.0,7.0,87,0.00,,,0.01,Rainwise IP-100,2014-01-12 15:28:00,
2014-01-12 08:33:00,34.0,31.0,26.94,North,360,0.0,5.0,87,0.00,,,0.01,Rainwise IP-100,2014-01-12 15:33:00,
2014-01-12 08:38:00,33.0,31.0,26.94,West,270,0.0,5.0,87,0.00,,,0.01,Rainwise IP-100,2014-01-12 15:38:00,
2014-01-12 08:43:00,33.0,31.0,26.95,West,270,0.0,0.0,88,0.00,,,0.01,Rainwise IP-100,2014-01-12 15:43:00,
2014-01-12 08:48:00,33.0,31.0,26.95,West,270,0.0,0.0,89,0.00,,,0.01,Rainwise IP-100,2014-01-12 15:48:00,
2014-01-12 08:53:00,33.0,31.0,26.96,West,270,0.0,1.0,89,0.00,,,0.01,Rainwise IP-100,2014-01-12 15:53:00,
2014-01-12 08:58:00,33.0,31.0,26.96,NE,45,1.0,3.0,90,0.00,,,0.01,Rainwise IP-100,2014-01-12 15:58:00,
2014-01-12 09:03:00,33.0,31.0,26.97,NE,45,0.0,2.0,91,0.00,,,0.01,Rainwise IP-100,2014-01-12 16:03:00,
2014-01-12 09:08:00,33.0,31.0,26.97,NE,45,0.0,0.0,91,0.00,,,0.01,Rainwise IP-100,2014-01-12 16:08:00,
2014-01-12 09:13:00,33.0,31.0,26.97,NE,45,0.0,0.0,92,0.00,,,0.01,Rainwise IP-100,2014-01-12 16:13:00,
2014-01-12 09:18:00,33.0,31.0,26.97,NE,45,0.0,0.0,92,0.00,,,0.01,Rainwise IP-100,2014-01-12 16:18:00,
2014-01-12 09:23:00,33.0,32.0,26.99,NE,45,3.0,0.0,93,0.00,,,0.01,Rainwise IP-100,2014-01-12 16:23:00,
2014-01-12 09:28:00,33.0,31.0,26.99,SSW,202,1.0,4.0,92,0.00,,,0.01,Rainwise IP-100,2014-01-12 16:28:00,
2014-01-12 09:33:00,33.0,32.0,26.99,SSW,202,0.0,3.0,94,0.00,,,0.01,Rainwise IP-100,2014-01-12 16:33:00,
2014-01-12 09:38:00,33.0,32.0,26.99,SSW,202,0.0,2.0,94,0.00,,,0.01,Rainwise IP-100,2014-01-12 16:38:00,
2014-01-12 09:43:00,33.0,32.0,27.00,SSW,202,0.0,2.0,94,0.00,,,0.01,Rainwise IP-100,2014-01-12 16:43:00,
2014-01-12 09:48:00,33.0,32.0,27.00,SSW,202,1.0,3.0,94,0.00,,,0.01,Rainwise IP-100,2014-01-12 16:48:00,
2014-01-12 09:53:00,33.0,32.0,27.01,SSW,202,0.0,2.0,95,0.00,,,0.01,Rainwise IP-100,2014-01-12 16:53:00,
2014-01-12 09:58:00,33.0,32.0,27.01,ESE,112,3.0,4.0,96,0.00,,,0.01,Rainwise IP-100,2014-01-12 16:58:00,
2014-01-12 10:03:00,33.0,32.0,27.01,ESE,112,1.0,5.0,95,0.00,,,0.01,Rainwise IP-100,2014-01-12 17:03:00,
2014-01-12 10:09:00,33.0,32.0,27.01,NNW,337,5.0,6.0,93,0.00,,,0.01,Rainwise IP-100,2014-01-12 17:09:00,
2014-01-12 10:14:00,33.0,32.0,27.02,North,360,1.0,8.0,94,0.00,,,0.01,Rainwise IP-100,2014-01-12 17:14:00,
2014-01-12 10:19:00,33.0,32.0,27.02,SE,135,6.0,6.0,94,0.00,,,0.01,Rainwise IP-100,2014-01-12 17:19:00,
2014-01-12 10:24:00,33.0,31.0,27.03,WSW,247,0.0,6.0,91,0.00,,,0.01,Rainwise IP-100,2014-01-12 17:24:00,
2014-01-12 10:29:00,33.0,31.0,27.03,SSW,202,0.0,6.0,87,0.00,,,0.01,Rainwise IP-100,2014-01-12 17:29:00,
2014-01-12 10:34:00,34.0,32.0,27.04,NNE,22,2.0,7.0,89,0.00,,,0.01,Rainwise IP-100,2014-01-12 17:34:00,
2014-01-12 10:39:00,34.0,32.0,27.04,NNW,337,5.0,7.0,90,0.00,,,0.01,Rainwise IP-100,2014-01-12 17:39:00,
2014-01-12 10:44:00,34.0,32.0,27.05,ESE,112,0.0,6.0,88,0.00,,,0.01,Rainwise IP-100,2014-01-12 17:44:00,
2014-01-12 10:49:00,34.0,31.0,27.05,WSW,247,1.0,4.0,87,0.00,,,0.01,Rainwise IP-100,2014-01-12 17:49:00,
2014-01-12 10:54:00,34.0,31.0,27.07,WSW,247,0.0,3.0,87,0.00,,,0.01,Rainwise IP-100,2014-01-12 17:54:00,
2014-01-12 10:59:00,34.0,31.0,27.07,West,270,2.0,3.0,86,0.06,,,0.02,Rainwise IP-100,2014-01-12 17:59:00,
2014-01-12 11:04:00,35.0,28.0,27.07,South,180,7.0,9.0,77,0.06,,,0.02,Rainwise IP-100,2014-01-12 18:04:00,
2014-01-12 11:09:00,35.0,28.0,27.07,SSE,157,4.0,9.0,75,0.00,,,0.02,Rainwise IP-100,2014-01-12 18:09:00,
2014-01-12 11:14:00,35.0,28.0,27.08,SW,225,3.0,6.0,74,0.00,,,0.02,Rainwise IP-100,2014-01-12 18:14:00,
2014-01-12 11:19:00,35.0,28.0,27.08,WSW,247,7.0,7.0,74,0.00,,,0.02,Rainwise IP-100,2014-01-12 18:19:00,
2014-01-12 11:24:00,35.0,26.0,27.08,SSW,202,7.0,9.0,72,0.00,,,0.02,Rainwise IP-100,2014-01-12 18:24:00,
2014-01-12 11:29:00,35.0,26.0,27.08,SSW,202,3.0,8.0,72,0.06,,,0.03,Rainwise IP-100,2014-01-12 18:29:00,
2014-01-12 11:34:00,35.0,28.0,27.09,South,180,5.0,7.0,73,0.06,,,0.03,Rainwise IP-100,2014-01-12 18:34:00,
2014-01-12 11:39:00,35.0,26.0,27.09,SSW,202,3.0,7.0,72,0.00,,,0.03,Rainwise IP-100,2014-01-12 18:39:00,
2014-01-12 11:44:00,35.0,28.0,27.10,SSE,157,3.0,7.0,74,0.00,,,0.03,Rainwise IP-100,2014-01-12 18:44:00,
2014-01-12 11:49:00,35.0,28.0,27.10,South,180,5.0,8.0,74,0.00,,,0.03,Rainwise IP-100,2014-01-12 18:49:00,
2014-01-12 11:54:00,35.0,26.0,27.09,SSW,202,3.0,9.0,72,0.00,,,0.03,Rainwise IP-100,2014-01-12 18:54:00,
2014-01-12 11:59:00,35.0,26.0,27.09,SW,225,2.0,10.0,71,0.00,,,0.03,Rainwise IP-100,2014-01-12 18:59:00,
2014-01-12 12:04:00,35.0,26.0,27.10,South,180,2.0,9.0,71,0.00,,,0.03,Rainwise IP-100,2014-01-12 19:04:00,
2014-01-12 12:09:00,35.0,26.0,27.10,SSW,202,3.0,12.0,69,0.06,,,0.04,Rainwise IP-100,2014-01-12 19:09:00,
2014-01-12 12:14:00,35.0,26.0,27.10,SW,225,2.0,9.0,71,0.06,,,0.04,Rainwise IP-100,2014-01-12 19:14:00,
2014-01-12 12:19:00,35.0,26.0,27.10,West,270,3.0,7.0,72,0.00,,,0.04,Rainwise IP-100,2014-01-12 19:19:00,
2014-01-12 12:24:00,35.0,26.0,27.11,SW,225,3.0,8.0,71,0.00,,,0.04,Rainwise IP-100,2014-01-12 19:24:00,
2014-01-12 12:29:00,35.0,26.0,27.11,SSW,202,4.0,7.0,70,0.00,,,0.04,Rainwise IP-100,2014-01-12 19:29:00,
2014-01-12 12:34:00,35.0,26.0,27.11,WSW,247,3.0,10.0,69,0.00,,,0.04,Rainwise IP-100,2014-01-12 19:34:00,
2014-01-12 12:39:00,36.0,26.0,27.11,WSW,247,0.0,9.0,68,0.00,,,0.04,Rainwise IP-100,2014-01-12 19:39:00,
2014-01-12 12:44:00,36.0,26.0,27.11,WSW,247,4.0,6.0,69,0.00,,,0.04,Rainwise IP-100,2014-01-12 19:44:00,
2014-01-12 12:49:00,36.0,26.0,27.11,SW,225,1.0,6.0,69,0.06,,,0.05,Rainwise IP-100,2014-01-12 19:49:00,
2014-01-12 12:54:00,36.0,26.0,27.11,SW,225,2.0,6.0,69,0.06,,,0.05,Rainwise IP-100,2014-01-12 19:54:00,
2014-01-12 12:59:00,35.0,26.0,27.11,WSW,247,2.0,9.0,69,0.00,,,0.05,Rainwise IP-100,2014-01-12 19:59:00,
2014-01-12 13:04:00,35.0,26.0,27.11,West,270,2.0,11.0,68,0.00,,,0.05,Rainwise IP-100,2014-01-12 20:04:00,
2014-01-12 13:09:00,35.0,26.0,27.11,SW,225,1.0,6.0,69,0.00,,,0.05,Rainwise IP-100,2014-01-12 20:09:00,
2014-01-12 13:14:00,35.0,26.0,27.12,WNW,292,2.0,6.0,69,0.00,,,0.05,Rainwise IP-100,2014-01-12 20:14:00,
2014-01-12 13:19:00,35.0,26.0,27.12,SW,225,2.0,5.0,68,0.00,,,0.05,Rainwise IP-100,2014-01-12 20:19:00,
2014-01-12 13:24:00,35.0,26.0,27.12,WSW,247,3.0,7.0,69,0.00,,,0.05,Rainwise IP-100,2014-01-12 20:24:00,
2014-01-12 13:29:00,35.0,26.0,27.12,WSW,247,2.0,4.0,70,0.00,,,0.05,Rainwise IP-100,2014-01-12 20:29:00,
2014-01-12 13:34:00,35.0,26.0,27.12,NW,315,2.0,5.0,71,0.00,,,0.05,Rainwise IP-100,2014-01-12 20:34:00,
2014-01-12 13:39:00,35.0,26.0,27.12,WNW,292,4.0,6.0,71,0.00,,,0.05,Rainwise IP-100,2014-01-12 20:39:00,
2014-01-12 13:44:00,35.0,28.0,27.13,NNW,337,6.0,6.0,73,0.00,,,0.05,Rainwise IP-100,2014-01-12 20:44:00,
2014-01-12 13:49:00,35.0,28.0,27.13,NNW,337,6.0,7.0,74,0.00,,,0.05,Rainwise IP-100,2014-01-12 20:49:00,
2014-01-12 13:54:00,35.0,28.0,27.13,NNW,337,3.0,7.0,75,0.00,,,0.05,Rainwise IP-100,2014-01-12 20:54:00,
2014-01-12 13:59:00,34.0,28.0,27.13,NNW,337,6.0,7.0,76,0.00,,,0.05,Rainwise IP-100,2014-01-12 20:59:00,
2014-01-12 14:04:00,34.0,28.0,27.13,West,270,6.0,8.0,76,0.00,,,0.05,Rainwise IP-100,2014-01-12 21:04:00,
2014-01-12 14:09:00,34.0,28.0,27.13,NNW,337,3.0,7.0,77,0.00,,,0.05,Rainwise IP-100,2014-01-12 21:09:00,
2014-01-12 14:14:00,34.0,28.0,27.15,NNW,337,4.0,5.0,77,0.00,,,0.05,Rainwise IP-100,2014-01-12 21:14:00,
2014-01-12 14:19:00,34.0,29.0,27.15,NW,315,3.0,6.0,78,0.00,,,0.05,Rainwise IP-100,2014-01-12 21:19:00,
2014-01-12 14:24:00,34.0,29.0,27.15,NW,315,3.0,7.0,79,0.00,,,0.05,Rainwise IP-100,2014-01-12 21:24:00,
2014-01-12 14:29:00,34.0,29.0,27.15,NW,315,6.0,7.0,79,0.00,,,0.05,Rainwise IP-100,2014-01-12 21:29:00,
2014-01-12 14:34:00,34.0,29.0,27.15,NNW,337,3.0,6.0,79,0.00,,,0.05,Rainwise IP-100,2014-01-12 21:34:00,
2014-01-12 14:39:00,34.0,29.0,27.15,NE,45,2.0,5.0,79,0.00,,,0.05,Rainwise IP-100,2014-01-12 21:39:00,
2014-01-12 14:44:00,34.0,29.0,27.16,NE,45,0.0,5.0,79,0.00,,,0.05,Rainwise IP-100,2014-01-12 21:44:00,
2014-01-12 14:49:00,34.0,29.0,27.16,NNW,337,1.0,4.0,79,0.00,,,0.05,Rainwise IP-100,2014-01-12 21:49:00,
2014-01-12 14:54:00,34.0,29.0,27.16,NNW,337,2.0,3.0,79,0.00,,,0.05,Rainwise IP-100,2014-01-12 21:54:00,
2014-01-12 14:59:00,34.0,29.0,27.16,NNE,22,0.0,5.0,79,0.00,,,0.05,Rainwise IP-100,2014-01-12 21:59:00,
2014-01-12 15:04:00,34.0,29.0,27.17,NNE,22,0.0,3.0,79,0.00,,,0.05,Rainwise IP-100,2014-01-12 22:04:00,
2014-01-12 15:09:00,34.0,29.0,27.17,NNE,22,2.0,2.0,79,0.00,,,0.05,Rainwise IP-100,2014-01-12 22:09:00,
2014-01-12 15:14:00,34.0,29.0,27.17,NNE,22,0.0,4.0,79,0.00,,,0.05,Rainwise IP-100,2014-01-12 22:14:00,
2014-01-12 15:19:00,34.0,29.0,27.17,North,360,1.0,4.0,79,0.00,,,0.05,Rainwise IP-100,2014-01-12 22:19:00,
2014-01-12 15:24:00,34.0,29.0,27.18,NNE,22,0.0,2.0,79,0.00,,,0.05,Rainwise IP-100,2014-01-12 22:24:00,
2014-01-12 15:29:00,34.0,29.0,27.18,NNE,22,0.0,0.0,79,0.00,,,0.05,Rainwise IP-100,2014-01-12 22:29:00,
2014-01-12 15:34:00,34.0,29.0,27.18,SE,135,4.0,5.0,80,0.00,,,0.05,Rainwise IP-100,2014-01-12 22:34:00,
2014-01-12 15:39:00,34.0,29.0,27.18,ESE,112,1.0,4.0,80,0.00,,,0.05,Rainwise IP-100,2014-01-12 22:39:00,
2014-01-12 15:44:00,34.0,29.0,27.18,ESE,112,0.0,4.0,80,0.00,,,0.05,Rainwise IP-100,2014-01-12 22:44:00,
2014-01-12 15:49:00,34.0,29.0,27.18,ENE,67,1.0,3.0,80,0.00,,,0.05,Rainwise IP-100,2014-01-12 22:49:00,
2014-01-12 15:54:00,34.0,29.0,27.18,ENE,67,0.0,4.0,80,0.00,,,0.05,Rainwise IP-100,2014-01-12 22:54:00,
2014-01-12 15:59:00,34.0,29.0,27.18,ENE,67,0.0,0.0,81,0.00,,,0.05,Rainwise IP-100,2014-01-12 22:59:00,
2014-01-12 16:04:00,34.0,29.0,27.19,SW,225,0.0,0.0,81,0.00,,,0.05,Rainwise IP-100,2014-01-12 23:04:00,
2014-01-12 16:09:00,34.0,29.0,27.19,North,360,1.0,4.0,82,0.00,,,0.05,Rainwise IP-100,2014-01-12 23:09:00,
2014-01-12 16:14:00,33.0,28.0,27.18,North,360,1.0,4.0,81,0.00,,,0.05,Rainwise IP-100,2014-01-12 23:14:00,
2014-01-12 16:19:00,33.0,28.0,27.18,North,360,3.0,4.0,81,0.00,,,0.05,Rainwise IP-100,2014-01-12 23:19:00,
2014-01-12 16:24:00,33.0,28.0,27.18,North,360,3.0,3.0,81,0.00,,,0.05,Rainwise IP-100,2014-01-12 23:24:00,
2014-01-12 16:29:00,33.0,28.0,27.18,NNW,337,4.0,5.0,81,0.00,,,0.05,Rainwise IP-100,2014-01-12 23:29:00,
2014-01-12 16:34:00,33.0,28.0,27.19,NNW,337,1.0,5.0,81,0.00,,,0.05,Rainwise IP-100,2014-01-12 23:34:00,
2014-01-12 16:39:00,33.0,28.0,27.19,WNW,292,1.0,2.0,81,0.00,,,0.05,Rainwise IP-100,2014-01-12 23:39:00,
2014-01-12 16:44:00,33.0,28.0,27.20,SSW,202,3.0,4.0,81,0.00,,,0.05,Rainwise IP-100,2014-01-12 23:44:00,
2014-01-12 16:49:00,33.0,29.0,27.20,South,180,1.0,5.0,82,0.00,,,0.05,Rainwise IP-100,2014-01-12 23:49:00,
2014-01-12 16:54:00,33.0,29.0,27.19,South,180,0.0,2.0,82,0.00,,,0.05,Rainwise IP-100,2014-01-12 23:54:00,
2014-01-12 16:59:00,33.0,29.0,27.19,South,180,0.0,0.0,82,0.00,,,0.05,Rainwise IP-100,2014-01-12 23:59:00,
2014-01-12 17:04:00,33.0,29.0,27.18,South,180,0.0,0.0,83,0.00,,,0.05,Rainwise IP-100,2014-01-13 00:04:00,
2014-01-12 17:09:00,33.0,29.0,27.18,South,180,1.0,2.0,84,0.00,,,0.05,Rainwise IP-100,2014-01-13 00:09:00,
2014-01-12 17:14:00,33.0,29.0,27.18,South,180,2.0,2.0,84,0.00,,,0.05,Rainwise IP-100,2014-01-13 00:14:00,
2014-01-12 17:19:00,33.0,29.0,27.18,South,180,0.0,3.0,85,0.00,,,0.05,Rainwise IP-100,2014-01-13 00:19:00,
2014-01-12 17:24:00,33.0,29.0,27.18,South,180,0.0,0.0,85,0.00,,,0.05,Rainwise IP-100,2014-01-13 00:24:00,
2014-01-12 17:29:00,32.0,29.0,27.18,South,180,0.0,0.0,87,0.00,,,0.05,Rainwise IP-100,2014-01-13 00:29:00,
2014-01-12 17:34:00,32.0,29.0,27.18,SSW,202,0.0,0.0,87,0.00,,,0.05,Rainwise IP-100,2014-01-13 00:34:00,
2014-01-12 17:39:00,32.0,28.0,27.18,North,360,4.0,4.0,86,0.00,,,0.05,Rainwise IP-100,2014-01-13 00:39:00,
2014-01-12 17:44:00,33.0,29.0,27.18,North,360,0.0,5.0,85,0.00,,,0.05,Rainwise IP-100,2014-01-13 00:44:00,
2014-01-12 17:49:00,33.0,29.0,27.18,North,360,1.0,2.0,85,0.00,,,0.05,Rainwise IP-100,2014-01-13 00:49:00,
2014-01-12 17:54:00,33.0,29.0,27.17,NNE,22,1.0,3.0,85,0.00,,,0.05,Rainwise IP-100,2014-01-13 00:54:00,
2014-01-12 17:59:00,33.0,29.0,27.17,ENE,67,1.0,2.0,84,0.00,,,0.05,Rainwise IP-100,2014-01-13 00:59:00,
2014-01-12 18:04:00,33.0,29.0,27.17,East,90,0.0,5.0,85,0.00,,,0.05,Rainwise IP-100,2014-01-13 01:04:00,
2014-01-12 18:09:00,33.0,29.0,27.17,East,90,0.0,0.0,85,0.00,,,0.05,Rainwise IP-100,2014-01-13 01:09:00,
2014-01-12 18:14:00,33.0,29.0,27.16,ENE,67,1.0,1.0,84,0.00,,,0.05,Rainwise IP-100,2014-01-13 01:14:00,
2014-01-12 18:19:00,33.0,29.0,27.16,ENE,67,1.0,3.0,84,0.00,,,0.05,Rainwise IP-100,2014-01-13 01:19:00,
2014-01-12 18:24:00,33.0,29.0,27.16,ENE,67,2.0,2.0,84,0.00,,,0.05,Rainwise IP-100,2014-01-13 01:24:00,
2014-01-12 18:29:00,33.0,29.0,27.16,ENE,67,0.0,2.0,84,0.00,,,0.05,Rainwise IP-100,2014-01-13 01:29:00,
2014-01-12 18:34:00,33.0,29.0,27.16,SE,135,0.0,5.0,85,0.00,,,0.05,Rainwise IP-100,2014-01-13 01:34:00,
2014-01-12 18:39:00,33.0,29.0,27.16,SSW,202,0.0,4.0,86,0.00,,,0.05,Rainwise IP-100,2014-01-13 01:39:00,
2014-01-12 18:44:00,33.0,29.0,27.15,East,90,0.0,4.0,86,0.00,,,0.05,Rainwise IP-100,2014-01-13 01:44:00,
2014-01-12 18:49:00,32.0,29.0,27.15,East,90,0.0,3.0,87,0.00,,,0.05,Rainwise IP-100,2014-01-13 01:49:00,
2014-01-12 18:54:00,33.0,29.0,27.16,SSE,157,3.0,5.0,86,0.00,,,0.05,Rainwise IP-100,2014-01-13 01:54:00,
2014-01-12 18:59:00,33.0,29.0,27.16,ENE,67,3.0,5.0,86,0.00,,,0.05,Rainwise IP-100,2014-01-13 01:59:00,
2014-01-12 19:04:00,33.0,29.0,27.15,North,360,2.0,6.0,85,0.00,,,0.05,Rainwise IP-100,2014-01-13 02:04:00,
2014-01-12 19:09:00,33.0,29.0,27.15,North,360,0.0,4.0,84,0.00,,,0.05,Rainwise IP-100,2014-01-13 02:09:00,
2014-01-12 19:14:00,33.0,29.0,27.15,NW,315,2.0,4.0,84,0.00,,,0.05,Rainwise IP-100,2014-01-13 02:14:00,
2014-01-12 19:19:00,33.0,29.0,27.15,NNE,22,2.0,4.0,84,0.00,,,0.05,Rainwise IP-100,2014-01-13 02:19:00,
2014-01-12 19:24:00,33.0,29.0,27.15,WSW,247,0.0,2.0,84,0.00,,,0.05,Rainwise IP-100,2014-01-13 02:24:00,
2014-01-12 19:29:00,33.0,29.0,27.15,WSW,247,0.0,0.0,84,0.00,,,0.05,Rainwise IP-100,2014-01-13 02:29:00,
2014-01-12 19:34:00,33.0,29.0,27.15,WSW,247,0.0,0.0,84,0.00,,,0.05,Rainwise IP-100,2014-01-13 02:34:00,
2014-01-12 19:39:00,33.0,29.0,27.15,WSW,247,0.0,0.0,84,0.00,,,0.05,Rainwise IP-100,2014-01-13 02:39:00,
2014-01-12 19:44:00,33.0,29.0,27.15,WSW,247,0.0,1.0,86,0.00,,,0.05,Rainwise IP-100,2014-01-13 02:44:00,
2014-01-12 19:49:00,33.0,29.0,27.15,North,360,3.0,4.0,86,0.00,,,0.05,Rainwise IP-100,2014-01-13 02:49:00,
2014-01-12 19:54:00,33.0,29.0,27.15,WNW,292,0.0,3.0,86,0.00,,,0.05,Rainwise IP-100,2014-01-13 02:54:00,
2014-01-12 19:59:00,33.0,29.0,27.15,NNW,337,5.0,5.0,86,0.00,,,0.05,Rainwise IP-100,2014-01-13 02:59:00,
2014-01-12 20:04:00,33.0,29.0,27.15,West,270,0.0,6.0,86,0.00,,,0.05,Rainwise IP-100,2014-01-13 03:04:00,
2014-01-12 20:09:00,33.0,29.0,27.15,West,270,0.0,1.0,86,0.00,,,0.05,Rainwise IP-100,2014-01-13 03:09:00,
2014-01-12 20:14:00,33.0,29.0,27.15,West,270,0.0,2.0,86,0.00,,,0.05,Rainwise IP-100,2014-01-13 03:14:00,
2014-01-12 20:19:00,33.0,29.0,27.15,West,270,1.0,4.0,86,0.00,,,0.05,Rainwise IP-100,2014-01-13 03:19:00,
2014-01-12 20:24:00,33.0,29.0,27.14,West,270,3.0,6.0,83,0.00,,,0.05,Rainwise IP-100,2014-01-13 03:24:00,
2014-01-12 20:29:00,33.0,29.0,27.14,NW,315,4.0,7.0,83,0.00,,,0.05,Rainwise IP-100,2014-01-13 03:29:00,
2014-01-12 20:34:00,34.0,29.0,27.14,WSW,247,5.0,7.0,82,0.00,,,0.05,Rainwise IP-100,2014-01-13 03:34:00,
2014-01-12 20:39:00,34.0,29.0,27.14,NNW,337,4.0,7.0,82,0.00,,,0.05,Rainwise IP-100,2014-01-13 03:39:00,
2014-01-12 20:44:00,33.0,29.0,27.14,NW,315,3.0,6.0,84,0.00,,,0.05,Rainwise IP-100,2014-01-13 03:44:00,
2014-01-12 20:49:00,33.0,29.0,27.14,NW,315,4.0,7.0,85,0.00,,,0.05,Rainwise IP-100,2014-01-13 03:49:00,
2014-01-12 20:54:00,32.0,29.0,27.14,WNW,292,4.0,8.0,88,0.00,,,0.05,Rainwise IP-100,2014-01-13 03:54:00,
2014-01-12 20:59:00,32.0,29.0,27.14,NW,315,6.0,9.0,88,0.00,,,0.05,Rainwise IP-100,2014-01-13 03:59:00,
2014-01-12 21:04:00,32.0,29.0,27.15,West,270,2.0,7.0,88,0.00,,,0.05,Rainwise IP-100,2014-01-13 04:04:00,
2014-01-12 21:09:00,32.0,29.0,27.15,WNW,292,3.0,5.0,89,0.00,,,0.05,Rainwise IP-100,2014-01-13 04:09:00,
2014-01-12 21:14:00,32.0,29.0,27.15,WNW,292,2.0,6.0,89,0.00,,,0.05,Rainwise IP-100,2014-01-13 04:14:00,
2014-01-12 21:19:00,32.0,29.0,27.15,NNW,337,2.0,5.0,89,0.00,,,0.05,Rainwise IP-100,2014-01-13 04:19:00,
2014-01-12 21:24:00,32.0,29.0,27.15,WNW,292,0.0,5.0,90,0.00,,,0.05,Rainwise IP-100,2014-01-13 04:24:00,
2014-01-12 21:29:00,32.0,29.0,27.15,SE,135,4.0,6.0,91,0.00,,,0.05,Rainwise IP-100,2014-01-13 04:29:00,
2014-01-12 21:34:00,32.0,29.0,27.15,SE,135,2.0,5.0,91,0.00,,,0.05,Rainwise IP-100,2014-01-13 04:34:00,
2014-01-12 21:39:00,32.0,29.0,27.15,SSE,157,4.0,4.0,91,0.00,,,0.05,Rainwise IP-100,2014-01-13 04:39:00,
2014-01-12 21:44:00,32.0,29.0,27.15,SE,135,4.0,5.0,91,0.00,,,0.05,Rainwise IP-100,2014-01-13 04:44:00,
2014-01-12 21:49:00,32.0,29.0,27.15,ESE,112,0.0,4.0,91,0.00,,,0.05,Rainwise IP-100,2014-01-13 04:49:00,
2014-01-12 21:54:00,32.0,29.0,27.15,ESE,112,3.0,4.0,91,0.00,,,0.05,Rainwise IP-100,2014-01-13 04:54:00,
2014-01-12 21:59:00,32.0,29.0,27.15,ESE,112,3.0,3.0,91,0.00,,,0.05,Rainwise IP-100,2014-01-13 04:59:00,
2014-01-12 22:01:00,32.0,29.0,27.15,ESE,112,3.0,4.0,91,0.00,,,0.05,Rainwise IP-100,2014-01-13 05:01:00,
2014-01-12 22:06:00,32.0,29.0,27.15,SE,135,2.0,4.0,90,0.00,,,0.05,Rainwise IP-100,2014-01-13 05:06:00,
2014-01-12 22:11:00,32.0,29.0,27.15,SE,135,0.0,3.0,90,0.00,,,0.05,Rainwise IP-100,2014-01-13 05:11:00,
2014-01-12 22:16:00,32.0,29.0,27.15,SE,135,0.0,1.0,91,0.00,,,0.05,Rainwise IP-100,2014-01-13 05:16:00,
2014-01-12 22:21:00,32.0,29.0,27.15,SE,135,4.0,4.0,91,0.00,,,0.05,Rainwise IP-100,2014-01-13 05:21:00,
2014-01-12 22:26:00,32.0,29.0,27.15,SE,135,3.0,4.0,91,0.00,,,0.05,Rainwise IP-100,2014-01-13 05:26:00,
2014-01-12 22:31:00,32.0,29.0,27.15,ESE,112,3.0,4.0,91,0.00,,,0.05,Rainwise IP-100,2014-01-13 05:31:00,
2014-01-12 22:36:00,32.0,29.0,27.15,ENE,67,4.0,4.0,91,0.00,,,0.05,Rainwise IP-100,2014-01-13 05:36:00,
2014-01-12 22:41:00,32.0,29.0,27.15,ENE,67,1.0,6.0,91,0.00,,,0.05,Rainwise IP-100,2014-01-13 05:41:00,
2014-01-12 22:46:00,33.0,31.0,27.14,ENE,67,3.0,6.0,90,0.00,,,0.05,Rainwise IP-100,2014-01-13 05:46:00,
2014-01-12 22:51:00,33.0,31.0,27.14,North,360,3.0,7.0,90,0.00,,,0.05,Rainwise IP-100,2014-01-13 05:51:00,
2014-01-12 22:56:00,33.0,31.0,27.15,ENE,67,2.0,4.0,89,0.00,,,0.05,Rainwise IP-100,2014-01-13 05:56:00,
2014-01-12 23:01:00,33.0,31.0,27.15,WNW,292,1.0,4.0,89,0.00,,,0.05,Rainwise IP-100,2014-01-13 06:01:00,
2014-01-12 23:06:00,33.0,31.0,27.15,WNW,292,0.0,3.0,89,0.00,,,0.05,Rainwise IP-100,2014-01-13 06:06:00,
2014-01-12 23:11:00,33.0,31.0,27.15,WNW,292,0.0,2.0,89,0.00,,,0.05,Rainwise IP-100,2014-01-13 06:11:00,
2014-01-12 23:16:00,33.0,31.0,27.15,West,270,0.0,0.0,89,0.00,,,0.05,Rainwise IP-100,2014-01-13 06:16:00,
2014-01-12 23:21:00,33.0,31.0,27.15,West,270,0.0,0.0,89,0.00,,,0.05,Rainwise IP-100,2014-01-13 06:21:00,
2014-01-12 23:26:00,33.0,31.0,27.15,South,180,0.0,3.0,89,0.00,,,0.05,Rainwise IP-100,2014-01-13 06:26:00,
2014-01-12 23:31:00,33.0,31.0,27.15,South,180,3.0,3.0,90,0.00,,,0.05,Rainwise IP-100,2014-01-13 06:31:00,
2014-01-12 23:36:00,33.0,31.0,27.15,SW,225,0.0,4.0,90,0.00,,,0.05,Rainwise IP-100,2014-01-13 06:36:00,
2014-01-12 23:41:00,33.0,31.0,27.15,SW,225,0.0,1.0,91,0.00,,,0.05,Rainwise IP-100,2014-01-13 06:41:00,
2014-01-12 23:46:00,33.0,31.0,27.16,East,90,1.0,3.0,91,0.00,,,0.05,Rainwise IP-100,2014-01-13 06:46:00,
2014-01-12 23:51:00,33.0,31.0,27.16,East,90,0.0,3.0,91,0.00,,,0.05,Rainwise IP-100,2014-01-13 06:51:00,
2014-01-12 23:56:00,33.0,31.0,27.16,East,90,0.0,1.0,91,0.00,,,0.05,Rainwise IP-100,2014-01-13 06:56:00,